| time (UTC) | temp F | wind direction | speed knots | gust knots | rain 1hr in | rain 24hr in | rain mn in | humidity % | barometer mb |
| 20260505200535 | 83 | 187 | 2.6 | 8.7 | 0.00 | 0.00 | 0.00 | 35 | 1014.1 |
| 20260505195520 | 83 | 211 | 3.5 | 8.7 | 0.00 | 0.00 | 0.00 | 36 | 1014.2 |
| 20260505194608 | 82 | 276 | 2.6 | 7.0 | 0.00 | 0.00 | 0.00 | 37 | 1014.4 |
| 20260505193556 | 82 | 305 | 3.5 | 12.2 | 0.00 | 0.00 | 0.00 | 36 | 1014.5 |
| 20260505192604 | 83 | 242 | 4.3 | 9.6 | 0.00 | 0.00 | 0.00 | 37 | 1014.7 |
| 20260505191529 | 83 | 301 | 3.5 | 12.2 | 0.00 | 0.00 | 0.00 | 36 | 1014.7 |
| 20260505190610 | 83 | 271 | 3.5 | 8.7 | 0.00 | 0.00 | 0.00 | 34 | 1014.8 |
| 20260505185559 | 83 | 202 | 1.7 | 11.3 | 0.00 | 0.00 | 0.00 | 35 | 1014.8 |
| 20260505184546 | 82 | 223 | 2.6 | 7.0 | 0.00 | 0.00 | 0.00 | 35 | 1014.9 |
| 20260505183532 | 82 | 211 | 4.3 | 13.9 | 0.00 | 0.00 | 0.00 | 35 | 1014.9 |
| 20260505182519 | 82 | 246 | 3.5 | 9.6 | 0.00 | 0.00 | 0.00 | 36 | 1015.0 |
| 20260505181608 | 82 | 265 | 4.3 | 9.6 | 0.00 | 0.00 | 0.00 | 36 | 1015.1 |
| 20260505180552 | 82 | 200 | 3.5 | 8.7 | 0.00 | 0.00 | 0.00 | 36 | 1015.2 |
| 20260505175538 | 82 | 224 | 3.5 | 11.3 | 0.00 | 0.00 | 0.00 | 35 | 1015.3 |
| 20260505174525 | 82 | 211 | 2.6 | 9.6 | 0.00 | 0.00 | 0.00 | 37 | 1015.1 |
| 20260505173613 | 82 | 261 | 1.7 | 8.7 | 0.00 | 0.00 | 0.00 | 37 | 1015.3 |
| 20260505172600 | 81 | 218 | 3.5 | 11.3 | 0.00 | 0.00 | 0.00 | 37 | 1015.5 |
| 20260505171547 | 81 | 273 | 2.6 | 7.8 | 0.00 | 0.00 | 0.00 | 39 | 1015.5 |
| 20260505170535 | 81 | 314 | 3.5 | 9.6 | 0.00 | 0.00 | 0.00 | 40 | 1015.7 |
| 20260505165522 | 80 | 234 | 3.5 | 8.7 | 0.00 | 0.00 | 0.00 | 41 | 1015.9 |
| 20260505164609 | 81 | 256 | 1.7 | 6.1 | 0.00 | 0.00 | 0.00 | 42 | 1015.9 |
| 20260505163551 | 80 | 219 | 2.6 | 8.7 | 0.00 | 0.00 | 0.00 | 42 | 1015.9 |
| 20260505162540 | 80 | 254 | 3.5 | 7.8 | 0.00 | 0.00 | 0.00 | 42 | 1016.0 |
| 20260505161525 | 80 | 287 | 1.7 | 7.8 | 0.00 | 0.00 | 0.00 | 43 | 1016.2 |
| 20260505160611 | 79 | 225 | 3.5 | 7.8 | 0.00 | 0.00 | 0.00 | 44 | 1016.3 |
| 20260505152609 | 77 | 225 | 2.6 | 9.6 | 0.00 | 0.00 | 0.00 | 46 | 1016.5 |
| 20260505151555 | 77 | 281 | 3.5 | 7.8 | 0.00 | 0.00 | 0.00 | 47 | 1016.5 |
| 20260505150541 | 76 | 250 | 1.7 | 7.8 | 0.00 | 0.00 | 0.00 | 48 | 1016.6 |
| 20260505140523 | 72 | 247 | 2.6 | 8.7 | 0.00 | 0.00 | 0.00 | 54 | 1016.8 |
| 20260505124536 | 66 | 287 | 4.3 | 8.7 | 0.00 | 0.00 | 0.00 | 61 | 1016.9 |
| 20260505123520 | 66 | 243 | 1.7 | 6.1 | 0.00 | 0.00 | 0.00 | 63 | 1017.0 |
| 20260505122608 | 65 | 241 | 1.7 | 6.1 | 0.00 | 0.00 | 0.00 | 64 | 1017.0 |
| 20260505121555 | 64 | 252 | 1.7 | 6.1 | 0.00 | 0.00 | 0.00 | 65 | 1016.9 |
| 20260505120541 | 63 | 222 | 3.5 | 9.6 | 0.00 | 0.00 | 0.00 | 67 | 1016.9 |
| 20260505115528 | 62 | 265 | 1.7 | 6.1 | 0.00 | 0.00 | 0.00 | 68 | 1016.8 |
| 20260505114616 | 62 | 265 | 1.7 | 5.2 | 0.00 | 0.00 | 0.00 | 69 | 1016.8 |
| 20260505113604 | 61 | 256 | 1.7 | 6.1 | 0.00 | 0.00 | 0.00 | 70 | 1016.7 |
| 20260505112550 | 60 | 253 | 1.7 | 3.5 | 0.00 | 0.00 | 0.00 | 71 | 1016.7 |
| 20260505111537 | 60 | 211 | 1.7 | 6.1 | 0.00 | 0.00 | 0.00 | 71 | 1016.7 |
| 20260505110526 | 59 | 213 | 0.9 | 6.1 | 0.00 | 0.00 | 0.00 | 72 | 1016.6 |
| 20260505101518 | 59 | 250 | 0.9 | 5.2 | 0.00 | 0.00 | 0.00 | 73 | 1016.1 |
| 20260505100605 | 59 | 226 | 1.7 | 5.2 | 0.00 | 0.00 | 0.00 | 73 | 1016.0 |
| 20260505095552 | 59 | 282 | 0.9 | 7.0 | 0.00 | 0.00 | 0.00 | 73 | 1015.7 |
| 20260505094559 | 59 | 264 | 1.7 | 5.2 | 0.00 | 0.00 | 0.00 | 73 | 1015.7 |
| 20260505093526 | 59 | 269 | 0.9 | 3.5 | 0.00 | 0.00 | 0.00 | 73 | 1015.6 |
| 20260505092614 | 59 | 253 | 0.9 | 3.5 | 0.00 | 0.00 | 0.00 | 73 | 1015.5 |
| 20260505091555 | 59 | 248 | 1.7 | 7.0 | 0.00 | 0.00 | 0.00 | 73 | 1015.4 |
| 20260505090543 | 59 | 254 | 2.6 | 6.1 | 0.00 | 0.00 | 0.00 | 72 | 1015.4 |
| 20260505085529 | 59 | 259 | 1.7 | 7.8 | 0.00 | 0.00 | 0.00 | 72 | 1015.3 |
| 20260505084517 | 59 | 253 | 0.9 | 5.2 | 0.00 | 0.00 | 0.00 | 72 | 1015.4 |
| 20260505083604 | 59 | 274 | 1.7 | 6.1 | 0.00 | 0.00 | 0.00 | 72 | 1015.4 |
| 20260505082551 | 59 | 250 | 0.9 | 6.1 | 0.00 | 0.00 | 0.00 | 71 | 1015.4 |
| 20260505081557 | 60 | 247 | 0.9 | 2.6 | 0.00 | 0.00 | 0.00 | 70 | 1015.3 |
| 20260505080525 | 60 | 248 | 1.7 | 5.2 | 0.00 | 0.00 | 0.00 | 70 | 1015.2 |
| 20260505075615 | 60 | 258 | 0.9 | 2.6 | 0.00 | 0.00 | 0.00 | 69 | 1015.2 |
| 20260505074601 | 61 | 260 | 1.7 | 6.1 | 0.00 | 0.00 | 0.00 | 68 | 1015.1 |
| 20260505073546 | 61 | 264 | 1.7 | 6.1 | 0.00 | 0.00 | 0.00 | 68 | 1015.0 |
| 20260505072528 | 61 | 262 | 1.7 | 5.2 | 0.00 | 0.00 | 0.00 | 68 | 1014.9 |
| 20260505071800 | 61 | 250 | 1.7 | 5.2 | 0.00 | 0.00 | 0.00 | 67 | 1014.9 |
| 20260505070558 | 61 | 263 | 0.9 | 3.5 | 0.00 | 0.00 | 0.00 | 67 | 1014.9 |
| 20260505065547 | 61 | 257 | 1.7 | 6.1 | 0.00 | 0.00 | 0.00 | 66 | 1014.8 |
| 20260505064526 | 61 | 213 | 0.9 | 3.5 | 0.00 | 0.00 | 0.00 | 66 | 1015.0 |
| 20260505063616 | 62 | 283 | 0.9 | 3.5 | 0.00 | 0.00 | 0.00 | 65 | 1015.0 |
| 20260505062601 | 62 | 215 | 1.7 | 3.5 | 0.00 | 0.00 | 0.00 | 64 | 1015.0 |
| 20260505061548 | 62 | 235 | 1.7 | 5.2 | 0.00 | 0.00 | 0.00 | 64 | 1015.0 |
| 20260505060535 | 63 | 253 | 1.7 | 6.1 | 0.00 | 0.00 | 0.00 | 63 | 1014.9 |
| 20260505055519 | 63 | 240 | 2.6 | 6.1 | 0.00 | 0.00 | 0.00 | 62 | 1015.0 |
| 20260505054605 | 63 | 271 | 1.7 | 8.7 | 0.00 | 0.00 | 0.00 | 62 | 1015.1 |
| 20260505053553 | 63 | 229 | 3.5 | 7.8 | 0.00 | 0.00 | 0.00 | 62 | 1015.1 |
| 20260505052539 | 64 | 270 | 2.6 | 7.0 | 0.00 | 0.00 | 0.00 | 61 | 1015.2 |
| 20260505051546 | 64 | 251 | 1.7 | 7.8 | 0.00 | 0.00 | 0.00 | 61 | 1015.3 |
| 20260505050613 | 64 | 236 | 1.7 | 7.0 | 0.00 | 0.00 | 0.00 | 61 | 1015.3 |
| 20260505041605 | 64 | 242 | 2.6 | 7.0 | 0.00 | 0.00 | 0.00 | 61 | 1015.2 |
| 20260505040551 | 65 | 247 | 1.7 | 6.1 | 0.00 | 0.00 | 0.00 | 61 | 1015.2 |
| 20260505035539 | 65 | 222 | 2.6 | 8.7 | 0.00 | 0.00 | 0.00 | 61 | 1015.0 |
| 20260505034526 | 65 | 224 | 3.5 | 7.8 | 0.00 | 0.00 | 0.00 | 61 | 1015.0 |
| 20260505033634 | 65 | 261 | 2.6 | 6.1 | 0.00 | 0.00 | 0.00 | 60 | 1014.9 |
| 20260505032622 | 65 | 256 | 3.5 | 7.8 | 0.00 | 0.00 | 0.00 | 60 | 1014.9 |
| 20260505031623 | 65 | 265 | 3.5 | 12.2 | 0.00 | 0.00 | 0.00 | 60 | 1014.9 |
| 20260505030548 | 65 | 251 | 1.7 | 7.0 | 0.00 | 0.00 | 0.00 | 60 | 1014.9 |
| 20260505025638 | 66 | 249 | 2.6 | 7.8 | 0.00 | 0.00 | 0.00 | 60 | 1015.0 |
| 20260505024605 | 66 | 262 | 3.5 | 9.6 | 0.00 | 0.00 | 0.00 | 61 | 1014.9 |
| 20260505023631 | 66 | 250 | 1.7 | 8.7 | 0.00 | 0.00 | 0.00 | 62 | 1014.9 |
| 20260505022535 | 66 | 253 | 1.7 | 8.7 | 0.00 | 0.00 | 0.00 | 61 | 1014.8 |
| 20260505021616 | 66 | 167 | 2.6 | 8.7 | 0.00 | 0.00 | 0.00 | 62 | 1014.8 |
| 20260505020604 | 66 | 252 | 2.6 | 7.8 | 0.00 | 0.00 | 0.00 | 62 | 1015.0 |
| 20260505015550 | 66 | 108 | 1.7 | 6.1 | 0.00 | 0.00 | 0.00 | 62 | 1014.7 |
| 20260505014537 | 67 | 239 | 1.7 | 6.1 | 0.00 | 0.00 | 0.00 | 62 | 1014.8 |
| 20260505013524 | 67 | 183 | 2.6 | 5.2 | 0.00 | 0.00 | 0.00 | 62 | 1014.7 |
| 20260505012627 | 67 | 197 | 0.9 | 2.6 | 0.00 | 0.00 | 0.00 | 62 | 1014.6 |
| 20260505011603 | 67 | 261 | 1.7 | 5.2 | 0.00 | 0.00 | 0.00 | 61 | 1014.4 |
| 20260505010527 | 67 | 194 | 1.7 | 7.8 | 0.00 | 0.00 | 0.00 | 60 | 1014.3 |
| 20260505005616 | 68 | 168 | 1.7 | 5.2 | 0.00 | 0.00 | 0.00 | 60 | 1014.1 |
| 20260505004603 | 68 | 252 | 1.7 | 7.0 | 0.00 | 0.00 | 0.00 | 59 | 1013.9 |
| 20260505003630 | 68 | 266 | 1.7 | 7.8 | 0.00 | 0.00 | 0.00 | 59 | 1013.8 |
| 20260505002617 | 68 | 237 | 2.6 | 9.6 | 0.00 | 0.00 | 0.00 | 58 | 1013.6 |
| 20260505001525 | 69 | 167 | 2.6 | 7.0 | 0.00 | 0.00 | 0.00 | 58 | 1013.6 |
| 20260505000657 | 69 | 147 | 1.7 | 7.8 | 0.00 | 0.00 | 0.00 | 57 | 1013.4 |
| 20260504235559 | 69 | 206 | 1.7 | 5.2 | 0.00 | 0.00 | 0.00 | 56 | 1013.3 |
| 20260504234543 | 70 | 179 | 1.7 | 6.1 | 0.00 | 0.00 | 0.00 | 55 | 1013.2 |
| 20260504233530 | 71 | 178 | 1.7 | 5.2 | 0.00 | 0.00 | 0.00 | 54 | 1013.0 |
| 20260504232539 | 71 | 127 | 1.7 | 6.1 | 0.00 | 0.00 | 0.00 | 52 | 1012.9 |
| 20260504231558 | 72 | 217 | 2.6 | 7.8 | 0.00 | 0.00 | 0.00 | 50 | 1012.8 |
| 20260504230544 | 73 | 239 | 2.6 | 9.6 | 0.00 | 0.00 | 0.00 | 48 | 1012.7 |
| 20260504225532 | 75 | 268 | 4.3 | 12.2 | 0.00 | 0.00 | 0.00 | 42 | 1012.7 |
| 20260504224519 | 77 | 204 | 3.5 | 8.7 | 0.00 | 0.00 | 0.00 | 33 | 1012.5 |
| 20260504223607 | 78 | 251 | 2.6 | 7.0 | 0.00 | 0.00 | 0.00 | 33 | 1012.5 |
| 20260504222552 | 77 | 226 | 3.5 | 7.8 | 0.00 | 0.00 | 0.00 | 33 | 1012.5 |
| 20260504221539 | 78 | 225 | 3.5 | 8.7 | 0.00 | 0.00 | 0.00 | 33 | 1012.5 |
| 20260504220524 | 78 | 223 | 3.5 | 8.7 | 0.00 | 0.00 | 0.00 | 33 | 1012.5 |
| 20260504215613 | 78 | 228 | 2.6 | 11.3 | 0.00 | 0.00 | 0.00 | 33 | 1012.5 |
| 20260504214620 | 79 | 248 | 1.7 | 3.5 | 0.00 | 0.00 | 0.00 | 32 | 1012.7 |
| 20260504213547 | 79 | 256 | 3.5 | 11.3 | 0.00 | 0.00 | 0.00 | 32 | 1012.8 |
| 20260504212534 | 78 | 269 | 3.5 | 8.7 | 0.00 | 0.00 | 0.00 | 32 | 1012.7 |
| 20260504211523 | 79 | 212 | 4.3 | 12.2 | 0.00 | 0.00 | 0.00 | 32 | 1012.8 |
| 20260504210629 | 79 | 265 | 3.5 | 7.0 | 0.00 | 0.00 | 0.00 | 32 | 1012.8 |
| 20260504205556 | 80 | 294 | 2.6 | 9.6 | 0.00 | 0.00 | 0.00 | 31 | 1012.8 |
| 20260504204543 | 79 | 253 | 3.5 | 8.7 | 0.00 | 0.00 | 0.00 | 31 | 1012.9 |
| 20260504203527 | 80 | 166 | 2.6 | 6.1 | 0.00 | 0.00 | 0.00 | 33 | 1012.9 |
| 20260504202616 | 80 | 268 | 1.7 | 11.3 | 0.00 | 0.00 | 0.00 | 32 | 1012.9 |
| 20260504201602 | 79 | 204 | 3.5 | 8.7 | 0.00 | 0.00 | 0.00 | 33 | 1012.9 |